Year,Month,Day,Hour,Minute,Value (Times are PST for temperature in C)
2012,07,13,00,00,16.70
2012,07,13,00,01,16.70
2012,07,13,00,02,16.70
2012,07,13,00,03,16.70
2012,07,13,00,04,16.70
2012,07,13,00,05,16.60
2012,07,13,00,06,16.60
2012,07,13,00,07,16.60
2012,07,13,00,08,16.60
2012,07,13,00,09,16.50
2012,07,13,00,10,16.50
2012,07,13,00,11,16.50
2012,07,13,00,12,16.50
2012,07,13,00,13,16.50
2012,07,13,00,14,16.40
2012,07,13,00,15,16.40
2012,07,13,00,16,16.40
2012,07,13,00,17,16.40
2012,07,13,00,18,16.40
2012,07,13,00,19,16.30
2012,07,13,00,20,16.30
2012,07,13,00,21,16.30
2012,07,13,00,22,16.30
2012,07,13,00,23,16.40
2012,07,13,00,24,16.40
2012,07,13,00,25,16.40
2012,07,13,00,26,16.40
2012,07,13,00,27,16.40
2012,07,13,00,28,16.40
2012,07,13,00,29,16.40
2012,07,13,00,30,16.50
2012,07,13,00,31,16.50
2012,07,13,00,32,16.60
2012,07,13,00,33,16.60
2012,07,13,00,34,16.70
2012,07,13,00,35,16.70
2012,07,13,00,36,16.70
2012,07,13,00,37,16.80
2012,07,13,00,38,16.80
2012,07,13,00,39,16.90
2012,07,13,00,40,16.90
2012,07,13,00,41,16.90
2012,07,13,00,42,16.90
2012,07,13,00,43,16.90
2012,07,13,00,44,16.90
2012,07,13,00,45,16.90
2012,07,13,00,46,16.90
2012,07,13,00,47,16.90
2012,07,13,00,48,16.90
2012,07,13,00,49,16.90
2012,07,13,00,50,16.90
2012,07,13,00,51,16.90
2012,07,13,00,52,17.00
2012,07,13,00,53,17.00
2012,07,13,00,54,17.00
2012,07,13,00,55,17.10
2012,07,13,00,56,17.10
2012,07,13,00,57,17.10
2012,07,13,00,58,17.10
2012,07,13,00,59,17.10
2012,07,13,01,00,17.20
2012,07,13,01,01,17.20
2012,07,13,01,02,17.20
2012,07,13,01,03,17.20
2012,07,13,01,04,17.20
2012,07,13,01,05,17.20
2012,07,13,01,06,17.20
2012,07,13,01,07,17.20
2012,07,13,01,08,17.20
2012,07,13,01,09,17.20
2012,07,13,01,10,17.30
2012,07,13,01,11,17.20
2012,07,13,01,12,17.30
2012,07,13,01,13,17.30
2012,07,13,01,14,17.30
2012,07,13,01,15,17.30
2012,07,13,01,16,17.30
2012,07,13,01,17,17.30
2012,07,13,01,18,17.30
2012,07,13,01,19,17.30
2012,07,13,01,20,17.30
2012,07,13,01,21,17.30
2012,07,13,01,22,17.30
2012,07,13,01,23,17.30
2012,07,13,01,24,17.30
2012,07,13,01,25,17.20
2012,07,13,01,26,17.20
2012,07,13,01,27,17.10
2012,07,13,01,28,17.10
2012,07,13,01,29,17.00
2012,07,13,01,30,16.90
2012,07,13,01,31,16.90
2012,07,13,01,32,16.80
2012,07,13,01,33,16.80
2012,07,13,01,34,16.80
2012,07,13,01,35,16.80
2012,07,13,01,36,16.70
2012,07,13,01,37,16.70
2012,07,13,01,38,16.70
2012,07,13,01,39,16.80
2012,07,13,01,40,16.80
2012,07,13,01,41,16.80
2012,07,13,01,42,16.90
2012,07,13,01,43,17.00
2012,07,13,01,44,17.00
2012,07,13,01,45,17.10
2012,07,13,01,46,17.10
2012,07,13,01,47,17.20
2012,07,13,01,48,17.20
2012,07,13,01,49,17.20
2012,07,13,01,50,17.20
2012,07,13,01,51,17.20
2012,07,13,01,52,17.20
2012,07,13,01,53,17.20
2012,07,13,01,54,17.10
2012,07,13,01,55,17.10
2012,07,13,01,56,17.10
2012,07,13,01,57,17.00
2012,07,13,01,58,17.00
2012,07,13,01,59,16.90
2012,07,13,02,00,16.80
2012,07,13,02,01,16.80
2012,07,13,02,02,16.80
2012,07,13,02,03,16.80
2012,07,13,02,04,16.80
2012,07,13,02,05,16.80
2012,07,13,02,06,16.80
2012,07,13,02,07,16.80
2012,07,13,02,08,16.70
2012,07,13,02,09,16.70
2012,07,13,02,10,16.70
2012,07,13,02,11,16.70
2012,07,13,02,12,16.70
2012,07,13,02,13,16.60
2012,07,13,02,14,16.60
2012,07,13,02,15,16.60
2012,07,13,02,16,16.60
2012,07,13,02,17,16.50
2012,07,13,02,18,16.50
2012,07,13,02,19,16.50
2012,07,13,02,20,16.50
2012,07,13,02,21,16.60
2012,07,13,02,22,16.60
2012,07,13,02,23,16.70
2012,07,13,02,24,16.70
2012,07,13,02,25,16.70
2012,07,13,02,26,16.70
2012,07,13,02,27,16.80
2012,07,13,02,28,16.80
2012,07,13,02,29,16.80
2012,07,13,02,30,16.80
2012,07,13,02,31,16.80
2012,07,13,02,32,16.80
2012,07,13,02,33,16.70
2012,07,13,02,34,16.70
2012,07,13,02,35,16.70
2012,07,13,02,36,16.70
2012,07,13,02,37,16.70
2012,07,13,02,38,16.70
2012,07,13,02,39,16.70
2012,07,13,02,40,16.80
2012,07,13,02,41,16.80
2012,07,13,02,42,16.80
2012,07,13,02,43,16.80
2012,07,13,02,44,16.70
2012,07,13,02,45,16.70
2012,07,13,02,46,16.70
2012,07,13,02,47,16.60
2012,07,13,02,48,16.50
2012,07,13,02,49,16.50
2012,07,13,02,50,16.40
2012,07,13,02,51,16.30
2012,07,13,02,52,16.30
2012,07,13,02,53,16.30
2012,07,13,02,54,16.30
2012,07,13,02,55,16.30
2012,07,13,02,56,16.20
2012,07,13,02,57,16.20
2012,07,13,02,58,16.20
2012,07,13,02,59,16.20
2012,07,13,03,00,16.20
2012,07,13,03,01,16.20
2012,07,13,03,02,16.20
2012,07,13,03,03,16.20
2012,07,13,03,04,16.20
2012,07,13,03,05,16.20
2012,07,13,03,06,16.20
2012,07,13,03,07,16.20
2012,07,13,03,08,16.20
2012,07,13,03,09,16.20
2012,07,13,03,10,16.20
2012,07,13,03,11,16.20
2012,07,13,03,12,16.20
2012,07,13,03,13,16.20
2012,07,13,03,14,16.20
2012,07,13,03,15,16.20
2012,07,13,03,16,16.20
2012,07,13,03,17,16.10
2012,07,13,03,18,16.10
2012,07,13,03,19,16.10
2012,07,13,03,20,16.10
2012,07,13,03,21,16.00
2012,07,13,03,22,16.00
2012,07,13,03,23,16.00
2012,07,13,03,24,16.00
2012,07,13,03,25,16.00
2012,07,13,03,26,16.00
2012,07,13,03,27,16.00
2012,07,13,03,28,15.90
2012,07,13,03,29,15.90
2012,07,13,03,30,15.90
2012,07,13,03,31,15.90
2012,07,13,03,32,15.80
2012,07,13,03,33,15.80
2012,07,13,03,34,15.80
2012,07,13,03,35,15.80
2012,07,13,03,36,15.80
2012,07,13,03,37,15.70
2012,07,13,03,38,15.70
2012,07,13,03,39,15.60
2012,07,13,03,40,15.60
2012,07,13,03,41,15.60
2012,07,13,03,42,15.50
2012,07,13,03,43,15.50
2012,07,13,03,44,15.40
2012,07,13,03,45,15.40
2012,07,13,03,46,15.40
2012,07,13,03,47,15.40
2012,07,13,03,48,15.40
2012,07,13,03,49,15.40
2012,07,13,03,50,15.40
2012,07,13,03,51,15.40
2012,07,13,03,52,15.40
2012,07,13,03,53,15.40
2012,07,13,03,54,15.40
2012,07,13,03,55,15.40
2012,07,13,03,56,15.30
2012,07,13,03,57,15.30
2012,07,13,03,58,15.30
2012,07,13,03,59,15.30
2012,07,13,04,00,15.30
2012,07,13,04,01,15.30
2012,07,13,04,02,15.30
2012,07,13,04,03,15.30
2012,07,13,04,04,15.30
2012,07,13,04,05,15.30
2012,07,13,04,06,15.30
2012,07,13,04,07,15.30
2012,07,13,04,08,15.30
2012,07,13,04,09,15.30
2012,07,13,04,10,15.20
2012,07,13,04,11,15.20
2012,07,13,04,12,15.20
2012,07,13,04,13,15.20
2012,07,13,04,14,15.20
2012,07,13,04,15,15.20
2012,07,13,04,16,15.20
2012,07,13,04,17,15.20
2012,07,13,04,18,15.20
2012,07,13,04,19,15.20
2012,07,13,04,20,15.20
2012,07,13,04,21,15.20
2012,07,13,04,22,15.20
2012,07,13,04,23,15.10
2012,07,13,04,24,15.10
2012,07,13,04,25,15.10
2012,07,13,04,26,15.10
2012,07,13,04,27,15.10
2012,07,13,04,28,15.10
2012,07,13,04,29,15.00
2012,07,13,04,30,15.00
2012,07,13,04,31,15.00
2012,07,13,04,32,14.90
2012,07,13,04,33,14.80
2012,07,13,04,34,14.80
2012,07,13,04,35,14.70
2012,07,13,04,36,14.60
2012,07,13,04,37,14.40
2012,07,13,04,38,14.20
2012,07,13,04,39,14.10
2012,07,13,04,40,14.00
2012,07,13,04,41,13.90
2012,07,13,04,42,13.80
2012,07,13,04,43,13.80
2012,07,13,04,44,13.70
2012,07,13,04,45,13.60
2012,07,13,04,46,13.50
2012,07,13,04,47,13.50
2012,07,13,04,48,13.40
2012,07,13,04,49,13.30
2012,07,13,04,50,13.30
2012,07,13,04,51,13.30
2012,07,13,04,52,13.30
2012,07,13,04,53,13.30
2012,07,13,04,54,13.30
2012,07,13,04,55,13.30
2012,07,13,04,56,13.30
2012,07,13,04,57,13.30
2012,07,13,04,58,13.30
2012,07,13,04,59,13.30
2012,07,13,05,00,13.30
2012,07,13,05,01,13.30
2012,07,13,05,02,13.30
2012,07,13,05,03,13.30
2012,07,13,05,04,13.30
2012,07,13,05,05,13.30
2012,07,13,05,06,13.30
2012,07,13,05,07,13.30
2012,07,13,05,08,13.40
2012,07,13,05,09,13.40
2012,07,13,05,10,13.40
2012,07,13,05,11,13.40
2012,07,13,05,12,13.40
2012,07,13,05,13,13.40
2012,07,13,05,14,13.40
2012,07,13,05,15,13.40
2012,07,13,05,16,13.40
2012,07,13,05,17,13.40
2012,07,13,05,18,13.40
2012,07,13,05,19,13.40
2012,07,13,05,20,13.40
2012,07,13,05,21,13.40
2012,07,13,05,22,13.30
2012,07,13,05,23,13.30
2012,07,13,05,24,13.30
2012,07,13,05,25,13.30
2012,07,13,05,26,13.30
2012,07,13,05,27,13.30
2012,07,13,05,28,13.30
2012,07,13,05,29,13.30
2012,07,13,05,30,13.30
2012,07,13,05,31,13.30
2012,07,13,05,32,13.20
2012,07,13,05,33,13.30
2012,07,13,05,34,13.20
2012,07,13,05,35,13.20
2012,07,13,05,36,13.20
2012,07,13,05,37,13.20
2012,07,13,05,38,13.20
2012,07,13,05,39,13.20
2012,07,13,05,40,13.20
2012,07,13,05,41,13.20
2012,07,13,05,42,13.20
2012,07,13,05,43,13.20
2012,07,13,05,44,13.20
2012,07,13,05,45,13.20
2012,07,13,05,46,13.20
2012,07,13,05,47,13.20
2012,07,13,05,48,13.20
2012,07,13,05,49,13.20
2012,07,13,05,50,13.20
2012,07,13,05,51,13.20
2012,07,13,05,52,13.20
2012,07,13,05,53,13.20
2012,07,13,05,54,13.20
2012,07,13,05,55,13.20
2012,07,13,05,56,13.20
2012,07,13,05,57,13.20
2012,07,13,05,58,13.20
2012,07,13,05,59,13.30
2012,07,13,06,00,13.30
2012,07,13,06,01,13.30
2012,07,13,06,02,13.30
2012,07,13,06,03,13.30
2012,07,13,06,04,13.30
2012,07,13,06,05,13.40
2012,07,13,06,06,13.40
2012,07,13,06,07,13.40
2012,07,13,06,08,13.40
2012,07,13,06,09,13.40
2012,07,13,06,10,13.40
2012,07,13,06,11,13.40
2012,07,13,06,12,13.40
2012,07,13,06,13,13.40
2012,07,13,06,14,13.40
2012,07,13,06,15,13.50
2012,07,13,06,16,13.50
2012,07,13,06,17,13.60
2012,07,13,06,18,13.60
2012,07,13,06,19,13.60
2012,07,13,06,20,13.70
2012,07,13,06,21,13.70
2012,07,13,06,22,13.70
2012,07,13,06,23,13.70
2012,07,13,06,24,13.80
2012,07,13,06,25,13.80
2012,07,13,06,26,13.80
2012,07,13,06,27,13.80
2012,07,13,06,28,13.90
2012,07,13,06,29,13.90
2012,07,13,06,30,13.90
2012,07,13,06,31,13.90
2012,07,13,06,32,13.90
2012,07,13,06,33,14.00
2012,07,13,06,34,14.00
2012,07,13,06,35,14.10
2012,07,13,06,36,14.20
2012,07,13,06,37,14.20
2012,07,13,06,38,14.20
2012,07,13,06,39,14.30
2012,07,13,06,40,14.30
2012,07,13,06,41,14.30
2012,07,13,06,42,14.30
2012,07,13,06,43,14.30
2012,07,13,06,44,14.30
2012,07,13,06,45,14.40
2012,07,13,06,46,14.40
2012,07,13,06,47,14.40
2012,07,13,06,48,14.40
2012,07,13,06,49,14.50
2012,07,13,06,50,14.50
2012,07,13,06,51,14.50
2012,07,13,06,52,14.60
2012,07,13,06,53,14.60
2012,07,13,06,54,14.60
2012,07,13,06,55,14.60
2012,07,13,06,56,14.60
2012,07,13,06,57,14.60
2012,07,13,06,58,14.60
2012,07,13,06,59,14.60
2012,07,13,07,00,14.60
2012,07,13,07,01,14.60
2012,07,13,07,02,14.60
2012,07,13,07,03,14.60
2012,07,13,07,04,14.60
2012,07,13,07,05,14.60
2012,07,13,07,06,14.50
2012,07,13,07,07,14.50
2012,07,13,07,08,14.50
2012,07,13,07,09,14.50
2012,07,13,07,10,14.40
2012,07,13,07,11,14.40
2012,07,13,07,12,14.40
2012,07,13,07,13,14.40
2012,07,13,07,14,14.40
2012,07,13,07,15,14.40
2012,07,13,07,16,14.40
2012,07,13,07,17,14.40
2012,07,13,07,18,14.40
2012,07,13,07,19,14.40
2012,07,13,07,20,14.40
2012,07,13,07,21,14.40
2012,07,13,07,22,14.40
2012,07,13,07,23,14.40
2012,07,13,07,24,14.40
2012,07,13,07,25,14.40
2012,07,13,07,26,14.40
2012,07,13,07,27,14.40
2012,07,13,07,28,14.40
2012,07,13,07,29,14.40
2012,07,13,07,30,14.40
2012,07,13,07,31,14.40
2012,07,13,07,32,14.40
2012,07,13,07,33,14.40
2012,07,13,07,34,14.40
2012,07,13,07,35,14.40
2012,07,13,07,36,14.40
2012,07,13,07,37,14.30
2012,07,13,07,38,14.30
2012,07,13,07,39,14.20
2012,07,13,07,40,14.20
2012,07,13,07,41,14.10
2012,07,13,07,42,14.10
2012,07,13,07,43,14.00
2012,07,13,07,44,14.00
2012,07,13,07,45,14.00
2012,07,13,07,46,14.00
2012,07,13,07,47,13.90
2012,07,13,07,48,13.90
2012,07,13,07,49,13.90
2012,07,13,07,50,14.00
2012,07,13,07,51,14.00
2012,07,13,07,52,14.00
2012,07,13,07,53,14.10
2012,07,13,07,54,14.10
2012,07,13,07,55,14.10
2012,07,13,07,56,14.20
2012,07,13,07,57,14.20
2012,07,13,07,58,14.30
2012,07,13,07,59,14.30
2012,07,13,08,00,14.40
2012,07,13,08,01,14.50
2012,07,13,08,02,14.60
2012,07,13,08,03,14.70
2012,07,13,08,04,14.80
2012,07,13,08,05,14.90
2012,07,13,08,06,15.00
2012,07,13,08,07,15.20
2012,07,13,08,08,15.30
2012,07,13,08,09,15.50
2012,07,13,08,10,15.60
2012,07,13,08,11,15.80
2012,07,13,08,12,15.90
2012,07,13,08,13,16.00
2012,07,13,08,14,16.20
2012,07,13,08,15,16.30
2012,07,13,08,16,16.40
2012,07,13,08,17,16.50
2012,07,13,08,18,16.50
2012,07,13,08,19,16.60
2012,07,13,08,20,16.70
2012,07,13,08,21,16.70
2012,07,13,08,22,16.80
2012,07,13,08,23,16.90
2012,07,13,08,24,17.00
2012,07,13,08,25,17.10
2012,07,13,08,26,17.20
2012,07,13,08,27,17.30
2012,07,13,08,28,17.30
2012,07,13,08,29,17.30
2012,07,13,08,30,17.30
2012,07,13,08,31,17.30
2012,07,13,08,32,17.30
2012,07,13,08,33,17.30
2012,07,13,08,34,17.30
2012,07,13,08,35,17.20
2012,07,13,08,36,17.20
2012,07,13,08,37,17.20
2012,07,13,08,38,17.20
2012,07,13,08,39,17.20
2012,07,13,08,40,17.30
2012,07,13,08,41,17.30
2012,07,13,08,42,17.30
2012,07,13,08,43,17.40
2012,07,13,08,44,17.40
2012,07,13,08,45,17.40
2012,07,13,08,46,17.50
2012,07,13,08,47,17.60
2012,07,13,08,48,17.70
2012,07,13,08,49,17.80
2012,07,13,08,50,17.80
2012,07,13,08,51,17.80
2012,07,13,08,52,17.80
2012,07,13,08,53,17.80
2012,07,13,08,54,17.80
2012,07,13,08,55,17.80
2012,07,13,08,56,17.90
2012,07,13,08,57,17.90
2012,07,13,08,58,18.00
2012,07,13,08,59,18.10
2012,07,13,09,00,18.20
2012,07,13,09,01,18.30
2012,07,13,09,02,18.40
2012,07,13,09,03,18.50
2012,07,13,09,04,18.60
2012,07,13,09,05,18.70
2012,07,13,09,06,18.70
2012,07,13,09,07,18.70
2012,07,13,09,08,18.70
2012,07,13,09,09,18.70
2012,07,13,09,10,18.60
2012,07,13,09,11,18.60
2012,07,13,09,12,18.50
2012,07,13,09,13,18.50
2012,07,13,09,14,18.40
2012,07,13,09,15,18.30
2012,07,13,09,16,18.20
2012,07,13,09,17,18.10
2012,07,13,09,18,17.90
2012,07,13,09,19,17.90
2012,07,13,09,20,17.80
2012,07,13,09,21,17.80
2012,07,13,09,22,17.70
2012,07,13,09,23,17.70
2012,07,13,09,24,17.70
2012,07,13,09,25,17.60
2012,07,13,09,26,17.60
2012,07,13,09,27,17.60
2012,07,13,09,28,17.70
2012,07,13,09,29,17.70
2012,07,13,09,30,17.70
2012,07,13,09,31,17.70
2012,07,13,09,32,17.70
2012,07,13,09,33,17.70
2012,07,13,09,34,17.70
2012,07,13,09,35,17.70
2012,07,13,09,36,17.70
2012,07,13,09,37,17.60
2012,07,13,09,38,17.50
2012,07,13,09,39,17.30
2012,07,13,09,40,17.20
2012,07,13,09,41,17.00
2012,07,13,09,42,16.90
2012,07,13,09,43,16.80
2012,07,13,09,44,16.60
2012,07,13,09,45,16.30
2012,07,13,09,46,16.10
2012,07,13,09,47,15.90
2012,07,13,09,48,15.70
2012,07,13,09,49,15.60
2012,07,13,09,50,15.40
2012,07,13,09,51,15.30
2012,07,13,09,52,15.10
2012,07,13,09,53,15.00
2012,07,13,09,54,14.90
2012,07,13,09,55,14.80
2012,07,13,09,56,14.70
2012,07,13,09,57,14.60
2012,07,13,09,58,14.50
2012,07,13,09,59,14.40
2012,07,13,10,00,14.40
2012,07,13,10,01,14.30
2012,07,13,10,02,14.20
2012,07,13,10,03,14.20
2012,07,13,10,04,14.10
2012,07,13,10,05,14.10
2012,07,13,10,06,14.10
2012,07,13,10,07,14.10
2012,07,13,10,08,14.10
2012,07,13,10,09,14.00
2012,07,13,10,10,14.00
2012,07,13,10,11,14.00
2012,07,13,10,12,13.90
2012,07,13,10,13,13.90
2012,07,13,10,14,13.90
2012,07,13,10,15,13.90
2012,07,13,10,16,13.90
2012,07,13,10,17,13.80
2012,07,13,10,18,13.80
2012,07,13,10,19,13.80
2012,07,13,10,20,13.80
2012,07,13,10,21,13.80
2012,07,13,10,22,13.80
2012,07,13,10,23,13.80
2012,07,13,10,24,13.70
2012,07,13,10,25,13.70
2012,07,13,10,26,13.70
2012,07,13,10,27,13.70
2012,07,13,10,28,13.70
2012,07,13,10,29,13.70
2012,07,13,10,30,13.70
2012,07,13,10,31,13.60
2012,07,13,10,32,13.60
2012,07,13,10,33,13.60
2012,07,13,10,34,13.60
2012,07,13,10,35,13.70
2012,07,13,10,36,13.70
2012,07,13,10,37,13.70
2012,07,13,10,38,13.70
2012,07,13,10,39,13.70
2012,07,13,10,40,13.60
2012,07,13,10,41,13.60
2012,07,13,10,42,13.60
2012,07,13,10,43,13.50
2012,07,13,10,44,13.40
2012,07,13,10,45,13.30
2012,07,13,10,46,13.20
2012,07,13,10,47,13.10
2012,07,13,10,48,13.10
2012,07,13,10,49,13.10
2012,07,13,10,50,13.00
2012,07,13,10,51,13.00
2012,07,13,10,52,13.00
2012,07,13,10,53,13.00
2012,07,13,10,54,13.10
2012,07,13,10,55,13.10
2012,07,13,10,56,13.10
2012,07,13,10,57,13.20
2012,07,13,10,58,13.30
2012,07,13,10,59,13.30
2012,07,13,11,00,13.40
2012,07,13,11,01,13.40
2012,07,13,11,02,13.50
2012,07,13,11,03,13.60
2012,07,13,11,04,13.70
2012,07,13,11,05,13.70
2012,07,13,11,06,13.80
2012,07,13,11,07,13.90
2012,07,13,11,08,13.90
2012,07,13,11,09,14.00
2012,07,13,11,10,14.10
2012,07,13,11,11,14.20
2012,07,13,11,12,14.30
2012,07,13,11,13,14.40
2012,07,13,11,14,14.50
2012,07,13,11,15,14.60
2012,07,13,11,16,14.70
2012,07,13,11,17,14.80
2012,07,13,11,18,14.80
2012,07,13,11,19,14.90
2012,07,13,11,20,14.90
2012,07,13,11,21,15.00
2012,07,13,11,22,15.10
2012,07,13,11,23,15.20
2012,07,13,11,24,15.20
2012,07,13,11,25,15.30
2012,07,13,11,26,15.30
2012,07,13,11,27,15.40
2012,07,13,11,28,15.50
2012,07,13,11,29,15.50
2012,07,13,11,30,15.60
2012,07,13,11,31,15.60
2012,07,13,11,32,15.70
2012,07,13,11,33,15.70
2012,07,13,11,34,15.80
2012,07,13,11,35,15.90
2012,07,13,11,36,15.90
2012,07,13,11,37,15.90
2012,07,13,11,38,16.00
2012,07,13,11,39,16.00
2012,07,13,11,40,16.00
2012,07,13,11,41,16.10
2012,07,13,11,42,16.10
2012,07,13,11,43,16.10
2012,07,13,11,44,16.20
2012,07,13,11,45,16.30
2012,07,13,11,46,16.30
2012,07,13,11,47,16.30
2012,07,13,11,48,16.30
2012,07,13,11,49,16.30
2012,07,13,11,50,16.30
2012,07,13,11,51,16.30
2012,07,13,11,52,16.30
2012,07,13,11,53,16.10
2012,07,13,11,54,15.80
2012,07,13,11,55,15.50
2012,07,13,11,56,15.30
2012,07,13,11,57,15.20
2012,07,13,11,58,15.00
2012,07,13,11,59,14.90
2012,07,13,12,00,14.70
2012,07,13,12,01,14.60
2012,07,13,12,02,14.50
2012,07,13,12,03,14.40
2012,07,13,12,04,14.30
2012,07,13,12,05,14.30
2012,07,13,12,06,14.20
2012,07,13,12,07,14.20
2012,07,13,12,08,14.20
2012,07,13,12,09,14.20
2012,07,13,12,10,14.20
2012,07,13,12,11,14.10
2012,07,13,12,12,14.10
2012,07,13,12,13,13.90
2012,07,13,12,14,13.80
2012,07,13,12,15,13.80
2012,07,13,12,16,13.70
2012,07,13,12,17,13.60
2012,07,13,12,18,13.50
2012,07,13,12,19,13.40
2012,07,13,12,20,13.40
2012,07,13,12,21,13.30
2012,07,13,12,22,13.30
2012,07,13,12,23,13.10
2012,07,13,12,24,13.10
2012,07,13,12,25,13.00
2012,07,13,12,26,12.90
2012,07,13,12,27,12.90
2012,07,13,12,28,13.00
2012,07,13,12,29,13.00
2012,07,13,12,30,13.00
2012,07,13,12,31,13.10
2012,07,13,12,32,13.10
2012,07,13,12,33,13.20
2012,07,13,12,34,13.40
2012,07,13,12,35,13.50
2012,07,13,12,36,13.60
2012,07,13,12,37,13.70
2012,07,13,12,38,13.80
2012,07,13,12,39,13.80
2012,07,13,12,40,13.90
2012,07,13,12,41,13.90
2012,07,13,12,42,14.00
2012,07,13,12,43,14.10
2012,07,13,12,44,14.10
2012,07,13,12,45,14.30
2012,07,13,12,46,14.40
2012,07,13,12,47,14.60
2012,07,13,12,48,14.70
2012,07,13,12,49,14.80
2012,07,13,12,50,14.80
2012,07,13,12,51,14.90
2012,07,13,12,52,15.00
2012,07,13,12,53,15.00
2012,07,13,12,54,15.00
2012,07,13,12,55,15.10
2012,07,13,12,56,15.10
2012,07,13,12,57,15.20
2012,07,13,12,58,15.20
2012,07,13,12,59,15.30
2012,07,13,13,00,15.40
2012,07,13,13,01,15.50
2012,07,13,13,02,15.60
2012,07,13,13,03,15.80
2012,07,13,13,04,15.80
2012,07,13,13,05,15.90
2012,07,13,13,06,16.10
2012,07,13,13,07,16.20
2012,07,13,13,08,16.30
2012,07,13,13,09,16.40
2012,07,13,13,10,16.60
2012,07,13,13,11,16.70
2012,07,13,13,12,16.80
2012,07,13,13,13,16.90
2012,07,13,13,14,17.10
2012,07,13,13,15,17.20
2012,07,13,13,16,17.30
2012,07,13,13,17,17.50
2012,07,13,13,18,17.50
2012,07,13,13,19,17.50
2012,07,13,13,20,17.40
2012,07,13,13,21,17.40
2012,07,13,13,22,17.30
2012,07,13,13,23,17.30
2012,07,13,13,24,17.30
2012,07,13,13,25,17.20
2012,07,13,13,26,17.20
2012,07,13,13,27,17.30
2012,07,13,13,28,17.30
2012,07,13,13,29,17.30
2012,07,13,13,30,17.30
2012,07,13,13,31,17.40
2012,07,13,13,32,17.40
2012,07,13,13,33,17.40
2012,07,13,13,34,17.40
2012,07,13,13,35,17.40
2012,07,13,13,36,17.40
2012,07,13,13,37,17.40
2012,07,13,13,38,17.30
2012,07,13,13,39,17.20
2012,07,13,13,40,17.20
2012,07,13,13,41,17.20
2012,07,13,13,42,17.20
2012,07,13,13,43,17.20
2012,07,13,13,44,17.20
2012,07,13,13,45,17.10
2012,07,13,13,46,16.90
2012,07,13,13,47,16.70
2012,07,13,13,48,16.50
2012,07,13,13,49,16.30
2012,07,13,13,50,16.10
2012,07,13,13,51,16.00
2012,07,13,13,52,15.80
2012,07,13,13,53,15.70
2012,07,13,13,54,15.60
2012,07,13,13,55,15.50
2012,07,13,13,56,15.50
2012,07,13,13,57,15.40
2012,07,13,13,58,15.40
2012,07,13,13,59,15.50
2012,07,13,14,00,15.50
2012,07,13,14,01,15.50
2012,07,13,14,02,15.60
2012,07,13,14,03,15.60
2012,07,13,14,04,15.70
2012,07,13,14,05,15.70
2012,07,13,14,06,15.80
2012,07,13,14,07,15.80
2012,07,13,14,08,15.80
2012,07,13,14,09,15.80
2012,07,13,14,10,15.90
2012,07,13,14,11,16.00
2012,07,13,14,12,16.20
2012,07,13,14,13,16.30
2012,07,13,14,14,16.50
2012,07,13,14,15,16.70
2012,07,13,14,16,16.80
2012,07,13,14,17,16.90
2012,07,13,14,18,16.90
2012,07,13,14,19,16.90
2012,07,13,14,20,17.00
2012,07,13,14,21,17.00
2012,07,13,14,22,17.10
2012,07,13,14,23,17.20
2012,07,13,14,24,17.30
2012,07,13,14,25,17.40
2012,07,13,14,26,17.50
2012,07,13,14,27,17.70
2012,07,13,14,28,17.80
2012,07,13,14,29,17.80
2012,07,13,14,30,17.80
2012,07,13,14,31,17.70
2012,07,13,14,32,17.80
2012,07,13,14,33,17.80
2012,07,13,14,34,17.90
2012,07,13,14,35,18.10
2012,07,13,14,36,18.20
2012,07,13,14,37,18.40
2012,07,13,14,38,18.60
2012,07,13,14,39,18.70
2012,07,13,14,40,18.80
2012,07,13,14,41,19.00
2012,07,13,14,42,19.10
2012,07,13,14,43,19.30
2012,07,13,14,44,19.50
2012,07,13,14,45,19.60
2012,07,13,14,46,19.70
2012,07,13,14,47,19.80
2012,07,13,14,48,19.80
2012,07,13,14,49,19.90
2012,07,13,14,50,20.00
2012,07,13,14,51,20.10
2012,07,13,14,52,20.20
2012,07,13,14,53,20.40
2012,07,13,14,54,20.50
2012,07,13,14,55,20.60
2012,07,13,14,56,20.70
2012,07,13,14,57,20.70
2012,07,13,14,58,20.80
2012,07,13,14,59,20.80
2012,07,13,15,00,20.80
2012,07,13,15,01,20.80
2012,07,13,15,02,20.70
2012,07,13,15,03,20.60
2012,07,13,15,04,20.50
2012,07,13,15,05,20.40
2012,07,13,15,06,20.30
2012,07,13,15,07,20.30
2012,07,13,15,08,20.30
2012,07,13,15,09,20.30
2012,07,13,15,10,20.40
2012,07,13,15,11,20.50
2012,07,13,15,12,20.60
2012,07,13,15,13,20.70
2012,07,13,15,14,20.70
2012,07,13,15,15,20.60
2012,07,13,15,16,20.60
2012,07,13,15,17,20.60
2012,07,13,15,18,20.70
2012,07,13,15,19,20.80
2012,07,13,15,20,20.80
2012,07,13,15,21,20.90
2012,07,13,15,22,21.00
2012,07,13,15,23,21.00
2012,07,13,15,24,21.00
2012,07,13,15,25,21.10
2012,07,13,15,26,21.10
2012,07,13,15,27,21.10
2012,07,13,15,28,21.10
2012,07,13,15,29,21.10
2012,07,13,15,30,21.10
2012,07,13,15,31,21.10
2012,07,13,15,32,21.10
2012,07,13,15,33,21.10
2012,07,13,15,34,21.20
2012,07,13,15,35,21.20
2012,07,13,15,36,21.10
2012,07,13,15,37,21.10
2012,07,13,15,38,21.10
2012,07,13,15,39,21.10
2012,07,13,15,40,21.20
2012,07,13,15,41,21.30
2012,07,13,15,42,21.40
2012,07,13,15,43,21.50
2012,07,13,15,44,21.50
2012,07,13,15,45,21.50
2012,07,13,15,46,21.60
2012,07,13,15,47,21.70
2012,07,13,15,48,21.80
2012,07,13,15,49,21.90
2012,07,13,15,50,22.00
2012,07,13,15,51,22.10
2012,07,13,15,52,22.20
2012,07,13,15,53,22.30
2012,07,13,15,54,22.00
2012,07,13,15,55,21.70
2012,07,13,15,56,21.40
2012,07,13,15,57,21.20
2012,07,13,15,58,21.00
2012,07,13,15,59,20.90
2012,07,13,16,00,20.80
2012,07,13,16,01,20.70
2012,07,13,16,02,20.40
2012,07,13,16,03,20.00
2012,07,13,16,04,19.70
2012,07,13,16,05,19.50
2012,07,13,16,06,19.40
2012,07,13,16,07,19.30
2012,07,13,16,08,19.30
2012,07,13,16,09,19.30
2012,07,13,16,10,19.30
2012,07,13,16,11,19.20
2012,07,13,16,12,19.20
2012,07,13,16,13,19.20
2012,07,13,16,14,19.10
2012,07,13,16,15,19.10
2012,07,13,16,16,19.10
2012,07,13,16,17,19.20
2012,07,13,16,18,19.20
2012,07,13,16,19,19.30
2012,07,13,16,20,19.30
2012,07,13,16,21,19.30
2012,07,13,16,22,19.40
2012,07,13,16,23,19.40
2012,07,13,16,24,19.40
2012,07,13,16,25,19.50
2012,07,13,16,26,19.60
2012,07,13,16,27,19.60
2012,07,13,16,28,19.70
2012,07,13,16,29,19.80
2012,07,13,16,30,19.80
2012,07,13,16,31,19.90
2012,07,13,16,32,19.90
2012,07,13,16,33,20.00
2012,07,13,16,34,20.10
2012,07,13,16,35,20.20
2012,07,13,16,36,20.30
2012,07,13,16,37,20.40
2012,07,13,16,38,20.50
2012,07,13,16,39,20.60
2012,07,13,16,40,20.70
2012,07,13,16,41,20.80
2012,07,13,16,42,20.80
2012,07,13,16,43,20.90
2012,07,13,16,44,20.90
2012,07,13,16,45,20.90
2012,07,13,16,46,20.90
2012,07,13,16,47,21.00
2012,07,13,16,48,21.00
2012,07,13,16,49,21.00
2012,07,13,16,50,20.90
2012,07,13,16,51,20.90
2012,07,13,16,52,20.80
2012,07,13,16,53,20.70
2012,07,13,16,54,20.60
2012,07,13,16,55,20.60
2012,07,13,16,56,20.50
2012,07,13,16,57,20.50
2012,07,13,16,58,20.40
2012,07,13,16,59,20.40
2012,07,13,17,00,20.40
2012,07,13,17,01,20.40
2012,07,13,17,02,20.40
2012,07,13,17,03,20.30
2012,07,13,17,04,20.30
2012,07,13,17,05,20.30
2012,07,13,17,06,20.20
2012,07,13,17,07,20.20
2012,07,13,17,08,20.20
2012,07,13,17,09,20.20
2012,07,13,17,10,20.20
2012,07,13,17,11,20.20
2012,07,13,17,12,20.20
2012,07,13,17,13,20.20
2012,07,13,17,14,20.20
2012,07,13,17,15,20.20
2012,07,13,17,16,20.20
2012,07,13,17,17,20.20
2012,07,13,17,18,20.30
2012,07,13,17,19,20.30